Location: Newark
(13.6797°N, 8.5297°E)
Time: 20:14:39
(UTC+00:00)

Altair - Pass Details

Date: 03 February 2020
Orbit: 1502 x 1682 km, 47.2° (Epoch: 19 February)

Event Time Altitude Azimuth Distance (km) Brightness Sun altitude
Rises 06:01:05 0° 274° (W) 4,793 9.4 1.1°
Reaches altitude 10° 06:06:02 10° 295° (WNW) 3,845 9.0 2.2°
Maximum altitude 06:11:24 16° 329° (NNW) 3,441 8.9 3.5°
Drops below altitude 10° 06:16:52 10° 3° (N) 3,910 9.5 4.8°
Sets 06:22:03 0° 25° (NNE) 4,918 10.2 5.9°
